Regional Weather Roundup
Issued by NWS Wakefield, VA

Home | Current Version | Previous Version | Graphics & Text | Print | Product List | Glossary On
Versions: 1 2 3 4 5 6 7 8 9 10 11 12 13 14 15 16 17 18 19 20 21 22 23 24 25 26 27 28 29 30 31 32 33 34 35 36 37 38 39 40 41 42 43 44 45 46 47 48 49 50
000
ASUS41 KAKQ 171615
RWRAKQ

REGIONAL WEATHER ROUNDUP
NATIONAL WEATHER SERVICE WAKEFIELD VA
1100 AM EST SAT FEB 17 2018

Note: "fair" indicates few or no clouds below 12,000 feet with no
significant weather and/or obstructions to visibility. * = Denotes
station may not report precipitation (e.g., rain,snow,etc.),
thunder or fog.

VAZ042-051-052>054-056-171700-
NORTHERN VIRGINIA

CITY           SKY/WX    TMP DP  RH WIND       PRES   REMARKS
WASH NATIONAL  PTSUNNY   42  25  50 E9        30.36F
DULLES         PTSUNNY   40  24  53 SE8       30.33F
FORT BELVOIR   FAIR      42  23  47 SE8       30.35F
QUANTICO       FAIR      42  29  59 S10       30.36F
FREDERICKSBRG* FAIR      41  27  55 E10       30.34F
STAFFORD*      FAIR      43  27  52 SE5       30.38F
WARRENTON      PTSUNNY   41  20  44 SE9       30.33F
CULPEPER*      CLOUDY    40  23  50 S3        30.35F
MANASSAS*      FAIR      41  24  51 S10       30.35F
LEESBURG*      FAIR      39  27  60 SE8G17    30.33F
WINCHESTER     PTSUNNY   34  23  64 SE10      30.32F
FRONT ROYAL*   CLOUDY    36  27  69 CALM      30.30S
LURAY*         CLOUDY    36  28  75 CALM      30.29S
$$

VAZ048-049-060>072-079>083-171700-
CENTRAL AND SOUTH CENTRAL VIRGINIA

CITY           SKY/WX    TMP DP  RH WIND       PRES   REMARKS
RICHMOND       PTSUNNY   43  30  60 E12       30.32F
CHESTERFIELD*  CLOUDY    42  28  57 SE12      30.32F
PETERSBURG*    CLOUDY    41  28  60 E9        30.34F
HANOVER        CLOUDY    42  28  57 VRB7      30.33F
TAPPAHANNOCK*  FAIR      44  29  53 E8        30.37S
QUINTON*       PTSUNNY   42  29  60 SE6       30.34F
CHARLOTTSVILLE CLOUDY    39  23  52 NE6       30.32F
GORDONSVILLE*  CLOUDY    37  26  63 NE5       30.34F
ORANGE*        CLOUDY    37  27  65 CALM      30.34S
LOUISA*        CLOUDY    39  24  56 SE6       30.36F
BUMPASS*       CLOUDY    40  24  51 E8        30.33F
FARMVILLE*     CLOUDY    42  30  62 CALM      30.31F
CREWE*         CLOUDY    40  29  65 CALM      30.32F
FORT PICKETT*  CLOUDY    40  30  66 SE5       30.32F
CHASE CITY*    CLOUDY    40  28  63 SE8       30.32F
CLARKSVILLE*   CLOUDY    41  30  65 E7        30.31F
SOUTH HILL*    CLOUDY    40  31  70 NE6       30.36F
LAWRENCEVILLE* CLOUDY    40  30  67 E6        30.31F
EMPORIA*       CLOUDY    41  32  70 NE7       30.35F
$$

VAZ088>098-171700-
SOUTHEAST VIRGINIA

CITY           SKY/WX    TMP DP  RH WIND       PRES   REMARKS
NORFOLK        PTSUNNY   45  35  68 NE12      30.35F
VIRGINIA BEACH PTSUNNY   45  32  60 E7        30.35S
NORFOLK NAVAL  PTSUNNY   45  34  65 E12       30.37F
WEST POINT*    FAIR      45  29  53 E9        30.37F
SALUDA*        FAIR      41  32  70 E9        30.37S
NEWPORT NEWS   PTSUNNY   42  32  67 E9        30.37S
LANGLEY AFB    PTSUNNY   50  34  53 NE10      30.38F
FORT EUSTIS    CLOUDY    43  31  62 NE9       30.34S
WILLIAMSBURG*  PTSUNNY   48  36  61 E6        30.36F
HR EXEC AP*    PTSUNNY   45  34  65 E8        30.36F
FRANKLIN*      CLOUDY    44  32  63 E7        30.35S
US460-WAKEFLD  CLOUDY    43  32  65 E9        30.34F
$$

VAZ020-022-025-037-045-171700-
WEST CENTRAL AND SOUTHWEST VIRGINIA

CITY           SKY/WX    TMP DP  RH WIND       PRES   REMARKS
STAUNTON*      CLOUDY    34  25  69 S9        30.30S
WAYNESBORO*    CLOUDY    33  26  73 SE8       30.28R
HOT SPRINGS VA SNOW      28  28 100 SE9       30.16R VSB<1/4
LYNCHBURG      CLOUDY    37  26  64 NE9       30.31S
DANVILLE       CLOUDY    41  31  67 E7        30.29F
SOUTH BOSTON*  CLOUDY    42  27  56 E5        30.30F
MARTINSVILLE   CLOUDY    41  31  69 E3        30.30F
ROANOKE        LGT RAIN  38  30  73 SE8       30.31S
BLACKSBURG     LGT RAIN  37  33  87 SE8       30.26F
DUBLIN*        LGT RAIN  39  36  88 E7        30.23F
MARION*        LGT RAIN  40  34  78 E10       30.18F
HILLSVILLE*    CLOUDY    36  35  96 SE3       30.18F FOG
RICHLANDS*     RAIN      41  38  91 SE10      30.09F
WISE*          LGT RAIN  43  43 100 SE5       30.07F
ABINGDON*      CLOUDY    46  42  86 E12       30.09F
$$

MDZ021>025-VAZ099-100-171700-
SOUTHERN MARYLAND AND THE DELMARVA PENINSULA

CITY           SKY/WX    TMP DP  RH WIND       PRES   REMARKS
PATUXENT RIVER FAIR      40  29  64 SE12      30.37F
BAY BRIDGE APT FAIR      39  25  56 SE12      30.37F
LEONARDTOWN    FAIR      39  27  60 SE5       30.37F
DOVER          FAIR      37  21  53 SE12      30.38F
GEORGETOWN     FAIR      41  24  51 E12G21    30.38F
EASTON         SUNNY     41  25  52 SE8       30.41F
CAMBRIDGE      SUNNY     41  27  56 E10       30.37F
SALISBURY      FAIR      42  26  53 NE13      30.37F
OCEAN CITY     FAIR      41  28  60 E10       30.38F
WALLOPS ISLAND FAIR      44  27  51 E15       30.37F
ACCOMACK*      FAIR      43  30  61 E13G22    30.35F
$$

NCZ012>017-030>032-171700-
NORTH CENTRAL AND EASTERN NORTH CAROLINA

CITY           SKY/WX    TMP DP  RH WIND       PRES   REMARKS
ROANOKE RAPIDS CLOUDY    45  34  65 E6        30.32F
RALEIGH        CLOUDY    45  34  65 E10       30.28F
ELIZABETH CITY CLOUDY    49  39  68 NE15      30.33F
AHOSKIE*       CLOUDY    44  34  67 E6        30.33S
EDENTON*       CLOUDY    50  40  67 E15       30.34F
CURRITUCK*     PTSUNNY   47  35  64 NE8       30.34F
KILL DEVIL HLS CLOUDY    50  38  65 NE7       30.31
MANTEO         CLOUDY    49  37  63 E14G21    30.32F
CAPE HATTERAS  CLOUDY    51  41  68 NE13G20   30.28F
TARBORO*       NOT AVBL
GOLDSBORO      CLOUDY    48  38  66 E12       30.26F
WASHINGTON     CLOUDY    47  39  73 NE8       30.30F
GREENVILLE     FAIR      48  37  66 E8        30.31F
NEW BERN       CLOUDY    49  41  74 E12       30.30F
WILMINGTON     CLOUDY    52  42  69 E13       30.25F
$$

VAZ048-171700-
ELSEWHERE

CITY           SKY/WX    TMP DP  RH WIND       PRES   REMARKS
HARRISBURG PA  FAIR      37  22  54 SE9       30.34S
BALTIMORE      PTSUNNY   39  23  52 E12       30.35F
ANNAPOLIS      FAIR      40  29  64 SE10      30.37F
ANDREWS AFB    FAIR      40  24  53 SE8       30.33F
PHILADELPHIA   PTSUNNY   37  19  48 E8        30.38F
HENDERSON NC   CLOUDY    40  29  64 E7        30.29F
GREENSBORO     LGT RAIN  44  33  65 E9        30.23F
ROCKY MOUNT    CLOUDY    45  35  68 VRB6      30.30F
$$

VAZ100-171700-
MARINE

STATION/POSITION TIME  TEMP    WIND        PRES    WAVE   SWELL
                       AIR SEA DIR/SP/G            HT/PER HT/PER
                 (UTC) (F)     (DEG/KT/KT) (MB)    (FT/S) (FT/S)
BRANDYWINE LGT   1542   36     110/ 12/ 13 1029.3F
CAPE MAY NJ      1548   36 41  110/ 11/ 13 1028.4F
LEWES DE         1542   36 41   90/ 12/ 14 1029.1F
15NM E FENWICK I 1550   38 42   50/ 10/ 12 1028.9F   3/ 6   3/ 6
OCEAN-CITY-INLET 1548   40 40   90/  6/  9 1029.2F
WACHAPREAGUE VA  1548   40 47   60/ 14/ 18 1027.8F
THOMAS POINT MD  1600   37 38  120/  6/  7   N/A
GOOSES REEF MD   1600   38 38  140/  6/  8 1029.0    1/ 2
COVE POINT MD    1548   38     170/  7/  8 1029.2F
SOLOMONS ISLAND  1548   38 40  110/  9/ 11 1028.1F
BISHOPS HEAD MD  1548   40 43   80/  8/ 11 1028.7F
POTOMAC MD       1600   39 39  280/  8/ 10 1027.9    1
CAMBRIDGE MD     1548   39 43              1029.0F
LEWISETTA VA     1548   38 44  110/  7/ 10 1028.7F
RAPPAHANNOCK LGT 1548           80/ 13/ 14 1028.8F
STINGRAY PT      1600   41 42   90/  2/  4 1029.6    2/ 3
YORK RVR RNG VA  1548   41      80/  5/  6 1028.9F
YORKTOWN VA      1548   40 44   70/  8/ 10 1028.3R
DOMINION TERM VA 1548   43     330/  2/  4 1028.4F
KIPTOPEKE VA     1542      42   80/ 12/ 17   N/A
CAPE HENRY VA    1548   42      70/ 12/ 14   N/A
S CRANEY ISL VA  1548   42      70/  9/ 13 1027.7F
CAPE HENRY BUOY  1600      43                N/A     4/ 5
1ST LANDING BUOY 1600   42 43  100/ 12/ 14 1027.9    2/ 3
CAPE CHARLES BUO 1551      43                N/A     4/ 5
64NM E OF VA BCH 1550   47 50   60/ 16/ 19 1027.3F   6/ 7   3/ 8
DUCK PIER NC     1548   46 44   60/ 12/ 13 1026.6F
44100 DUCK FRF   1545      45                N/A     5/ 7   2/11
44056 DUCK FRF   1600      45                N/A     5/ 6
OREGON INLET NC  1542   47 52   40/ 10/ 13 1026.5F
HATTERAS NC      1548   51 59   50/ 12/ 18 1025.2F
DIAMOND SHLS NC  1600   58      30/ 19/ 25   N/A
CAPE LOOKOUT NC  1600           40/ 21/ 24 1025.2F
$$



USA.gov is the U.S. government's official web portal to all federal, state and local government web resources and services.